1507971601.15,63871,14.69,74536.3,13.51,-20.49,-21.13,0,*4E
1507971602.4,63872,14.69,74542.0,13.53,-20.35,-20.99,0,*47
1507971603.65,63873,14.69,74538.8,13.55,-20.93,-21.83,0,*46
1507971604.85,63874,14.69,74536.0,13.53,-21.09,-21.73,0,*4A
1507971606.07,63875,14.69,74534.5,13.55,-20.93,-21.73,0,*4F
1507971607.3,63876,14.69,74534.5,13.55,-19.99,-20.59,0,*45
1507971608.54,63877,14.69,74540.8,13.55,-19.71,-20.43,0,*49
1507971609.77,63878,14.69,74540.5,13.57,-20.29,-20.93,0,*4E
1507971611.03,63879,14.69,74542.5,13.57,-21.73,-22.77,0,*49
1507971612.31,63880,14.69,74544.3,13.55,-21.67,-22.31,0,*4A
1507971613.57,63881,14.69,74544.0,13.55,-20.43,-21.03,0,*4E
1507971614.82,63882,14.69,74546.8,13.57,-21.57,-22.41,0,*4E
1507971616.08,63883,14.69,74548.3,13.57,-21.97,-22.83,0,*4D
1507971617.33,63884,14.69,74548.0,13.57,-20.79,-21.39,0,*49
1507971618.61,63885,14.69,74546.3,13.55,-20.79,-21.33,0,*40
1507971619.89,63886,14.69,74546.5,13.57,-19.57,-20.15,0,*42
1507971621.13,63887,14.69,74536.8,13.59,-19.95,-20.53,0,*41
1507971622.37,63888,14.69,74534.8,13.59,-20.59,-21.27,0,*46
1507971623.58,63889,14.69,74532.8,13.59,-20.73,-21.47,0,*49
1507971624.83,63890,14.69,74530.8,13.59,-21.27,-22.21,0,*42
1507971626.07,63891,14.69,74532.3,13.59,-21.17,-21.67,0,*41
1507971627.29,63892,14.69,74532.8,13.59,-20.19,-20.69,0,*42
1507971628.5,63893,14.69,74538.0,13.59,-20.73,-21.47,0,*42
1507971629.73,63894,14.69,74538.8,13.59,-21.97,-22.63,0,*4B
1507971630.93,63895,14.69,74542.0,13.59,-21.43,-22.07,0,*41
1507971632.16,63896,14.69,74546.0,13.59,-20.49,-21.13,0,*4F
1507971633.36,63897,14.69,74546.0,13.59,-20.73,-21.43,0,*42
1507971634.56,63898,14.69,74542.8,13.59,-20.73,-21.47,0,*49
1507971635.76,63899,14.69,74538.0,13.63,-22.07,-22.83,0,*4B
1507971636.99,63900,14.69,74538.0,13.59,-21.83,-22.41,0,*42
1507971638.2,63901,14.69,74532.8,13.59,-22.37,-23.09,0,*42
1507971639.47,63902,14.69,74538.0,13.57,-24.71,-25.87,0,*4B
1507971640.72,63903,14.69,74540.3,13.55,-25.87,-26.77,0,*4C
1507971641.97,63904,14.69,74548.0,13.47,-25.03,-25.87,0,*48
1507971643.2,63905,14.69,74542.0,13.43,-25.13,-26.39,0,*4A
1507971644.46,63906,14.69,74544.8,13.43,-23.79,-24.71,0,*4D
1507971645.72,63907,14.69,74546.3,13.37,-23.53,-24.25,0,*46
1507971646.93,63908,14.69,74546.8,13.37,-24.05,-25.09,0,*42
1507971648.17,63909,14.69,74544.3,13.33,-25.45,-26.71,0,*4E
1507971649.38,63910,14.69,74546.3,13.29,-24.31,-25.13,0,*48
1507971650.62,63911,14.69,74546.5,13.29,-24.77,-25.75,0,*4B
1507971651.85,63912,14.69,74536.0,13.25,-24.93,-25.75,0,*4E
1507971653.05,63913,14.69,74532.8,13.25,-22.93,-23.59,0,*41
1507971654.26,63914,14.69,74532.8,13.25,-21.39,-22.07,0,*4F
1507971655.47,63915,14.69,74542.8,13.25,-20.59,-21.13,0,*4F
1507971656.69,63916,14.69,74542.8,13.27,-20.89,-21.63,0,*44
1507971657.97,63917,14.69,74536.8,13.27,-22.31,-23.23,0,*42
1507971659.23,63918,14.69,74540.8,13.27,-24.05,-24.87,0,*45
1507971660.47,63919,14.69,74536.3,13.25,-23.29,-23.95,0,*4B
1507971661.7,63920,14.69,74532.0,13.25,-21.27,-22.03,0,*43
1507971662.94,63921,14.69,74534.0,13.23,-22.37,-23.03,0,*47
1507971664.14,63922,14.69,74542.3,13.23,-22.03,-22.53,0,*47
1507971665.39,63923,14.69,74542.3,13.23,-22.21,-22.77,0,*40
1507971666.65,63924,14.69,74542.3,13.21,-20.69,-21.33,0,*48
1507971667.9,63925,14.69,74540.0,13.25,-21.27,-22.31,0,*47
1507971669.14,63926,14.69,74540.8,13.25,-22.21,-22.53,0,*45
1507971670.39,63927,14.69,74532.3,13.25,-21.23,-21.97,0,*4E
1507971671.65,63928,14.69,74528.3,13.27,-20.89,-21.67,0,*4D
1507971672.87,63929,14.69,74542.3,13.25,-20.49,-21.09,0,*4A
1507971674.12,63930,14.69,74546.0,13.27,-20.09,-20.99,0,*4C
1507971675.38,63931,14.69,74538.8,13.27,-23.09,-24.21,0,*49
1507971676.63,63932,14.69,74538.5,13.25,-23.29,-24.11,0,*49
1507971677.84,63933,14.69,74548.0,13.25,-23.75,-24.57,0,*43
1507971679.07,63934,14.69,74546.5,13.21,-21.93,-22.57,0,*4C
1507971680.32,63935,14.69,74548.5,13.21,-22.21,-22.87,0,*4A
1507971681.56,63936,14.69,74556.8,13.21,-22.57,-23.39,0,*4C
1507971682.79,63937,14.69,74556.3,13.21,-23.09,-24.35,0,*4C
1507971684.01,63938,14.69,74560.0,13.21,-22.87,-23.79,0,*4B
1507971685.27,63939,14.69,74558.8,13.19,-24.83,-25.97,0,*45
1507971686.47,63940,14.63,74550.0,13.11,-23.89,-24.61,0,*46
1507971687.74,63941,14.69,74538.5,13.11,-21.53,-22.31,0,*41
1507971688.95,63942,14.69,74536.3,13.11,-20.43,-21.17,0,*45
1507971690.2,63943,14.63,74528.8,13.17,-20.15,-20.73,0,*42
1507971691.42,63944,14.69,74530.5,13.19,-20.53,-21.43,0,*4B
1507971692.67,63945,14.69,74530.0,13.17,-23.29,-24.35,0,*4E
1507971693.94,63946,14.69,74554.8,13.17,-22.73,-23.53,0,*44
1507971695.19,63947,14.69,74554.3,13.17,-20.39,-21.03,0,*4E
1507971696.44,63948,14.63,74546.0,13.17,-25.39,-26.81,0,*49
1507971697.66,63949,14.69,74536.8,13.11,-26.23,-27.45,0,*4F
1507971698.92,63950,14.69,74536.3,13.07,-23.19,-23.99,0,*49
1507971700.17,63951,14.69,74542.0,13.09,-23.03,-23.79,0,*43
1507971701.38,63952,14.63,74544.8,13.07,-22.07,-22.63,0,*41
1507971702.64,63953,14.63,74544.0,13.07,-20.99,-21.67,0,*42
1507971703.87,63954,14.63,74544.8,13.07,-22.77,-24.05,0,*46
1507971705.1,63955,14.63,74546.0,13.05,-23.39,-24.31,0,*49
1507971706.33,63956,14.69,74548.0,13.03,-21.09,-21.83,0,*41
1507971707.57,63957,14.69,74548.8,13.05,-19.75,-20.39,0,*46
1507971708.8,63958,14.63,74546.0,13.11,-19.99,-20.79,0,*4A
1507971710.04,63959,14.63,74544.5,13.09,-19.91,-20.63,0,*41
1507971711.3,63960,14.63,74544.3,13.09,-20.25,-21.23,0,*4B
1507971712.5,63961,14.63,74550.0,13.11,-22.03,-22.83,0,*4C
1507971713.74,63962,14.63,74550.3,13.11,-20.89,-21.67,0,*46
1507971715.01,63963,14.63,74550.8,13.13,-20.15,-21.03,0,*42
1507971716.22,63964,14.63,74548.8,13.11,-20.59,-21.39,0,*46
1507971717.45,63965,14.63,74546.5,13.11,-19.95,-20.79,0,*48
1507971718.7,63966,14.63,74546.8,13.13,-22.63,-23.49,0,*48
1507971719.96,63967,14.63,74546.5,13.13,-20.63,-21.27,0,*41
1507971721.23,63968,14.63,74550.8,13.13,-19.23,-20.09,0,*4D
1507971722.48,63969,14.63,74552.0,13.17,-20.25,-21.03,0,*4F
1507971723.76,63970,14.63,74548.0,13.17,-22.47,-24.25,0,*40
1507971725.01,63971,14.63,74546.0,13.11,-23.19,-23.95,0,*41
1507971726.25,63972,14.63,74546.8,13.11,-20.43,-21.23,0,*41
1507971727.54,63973,14.63,74550.5,13.13,-19.57,-20.35,0,*4B
1507971728.79,63974,14.63,74548.8,13.13,-19.51,-20.15,0,*48
1507971730.04,63975,14.63,74550.8,13.17,-21.23,-22.27,0,*40
1507971731.3,63976,14.63,74548.3,13.17,-21.13,-21.83,0,*4D
1507971732.49,63977,14.63,74548.8,13.19,-21.09,-21.77,0,*42
1507971733.72,63978,14.63,74548.8,13.19,-20.83,-21.63,0,*4B
1507971734.97,63979,14.63,74550.3,13.17,-20.89,-21.83,0,*40
1507971736.21,63980,14.63,74548.5,13.19,-20.39,-21.27,0,*4D
1507971737.46,63981,14.63,74548.3,13.19,-20.83,-21.87,0,*47
1507971738.69,63982,14.63,74548.5,13.17,-22.11,-23.09,0,*47
1507971739.98,63983,14.63,74548.5,13.17,-21.53,-22.47,0,*48
1507971741.2,63984,14.63,74548.0,13.17,-20.29,-21.13,0,*41
1507971742.43,63985,14.63,74548.8,13.19,-20.39,-21.27,0,*48
1507971743.66,63986,14.63,74548.0,13.17,-20.59,-21.39,0,*4C
1507971744.9,63987,14.63,74550.0,13.19,-19.85,-20.35,0,*45
1507971746.13,63988,14.63,74554.5,13.19,-20.53,-21.47,0,*4F
1507971747.34,63989,14.63,74554.5,13.19,-20.25,-20.89,0,*4C
1507971748.6,63990,14.63,74552.5,13.21,-18.69,-19.41,0,*42
1507971749.83,63991,14.63,74548.8,13.23,-18.49,-19.27,0,*43
1507971751.06,63992,14.63,74548.8,13.23,-18.45,-19.27,0,*4C
1507971752.27,63993,14.63,74548.8,13.27,-18.11,-18.99,0,*4C
1507971753.5,63994,14.63,74548.5,13.29,-19.91,-20.83,0,*4C
1507971754.72,63995,14.63,74546.0,13.29,-19.71,-20.63,0,*4D
1507971755.95,63996,14.63,74546.3,13.29,-20.05,-20.83,0,*49
1507971757.2,63997,14.63,74546.5,13.29,-19.41,-20.19,0,*41
1507971758.49,63998,14.63,74552.5,13.31,-19.41,-20.19,0,*47
1507971759.72,63999,14.63,74552.0,13.31,-19.37,-20.05,0,*4A
1507971760.95,64000,14.63,74550.8,13.33,-20.79,-22.07,0,*46
1507971762.2,64001,14.63,74544.3,13.33,-20.19,-20.99,0,*44
1507971763.4,64002,14.63,74544.5,13.33,-19.91,-20.73,0,*49
1507971764.65,64003,14.63,74544.8,13.35,-18.83,-19.61,0,*45
1507971765.9,64004,14.63,74546.8,13.35,-18.59,-19.37,0,*46
1507971767.11,64005,14.63,74548.3,13.41,-18.99,-19.75,0,*4E
1507971768.31,64006,14.63,74554.8,13.37,-18.73,-19.47,0,*49
1507971769.55,64007,14.63,74548.3,13.37,-20.39,-21.23,0,*44
1507971770.77,64008,14.63,74550.5,13.43,-20.93,-21.73,0,*4D
1507971771.99,64009,14.63,74546.8,13.37,-21.39,-22.31,0,*4B
1507971773.22,64010,14.63,74550.3,13.37,-20.25,-21.03,0,*4D
1507971774.46,64011,14.63,74550.8,13.41,-19.31,-20.05,0,*45
1507971775.71,64012,14.63,74548.5,13.43,-18.45,-19.27,0,*4C
1507971776.96,64013,14.63,74550.5,13.43,-18.99,-19.85,0,*44
1507971778.18,64014,14.63,74552.8,13.43,-19.07,-19.99,0,*48
1507971779.44,64015,14.63,74548.8,13.45,-18.93,-19.65,0,*40
1507971780.69,64016,14.63,74548.8,13.47,-19.37,-20.15,0,*43
1507971781.92,64017,14.63,74554.3,13.49,-19.03,-19.81,0,*4C
1507971783.13,64018,14.63,74554.5,13.49,-19.95,-20.89,0,*4E
1507971784.37,64019,14.63,74550.8,13.45,-20.43,-21.23,0,*43
1507971785.58,64020,14.63,74554.3,13.49,-19.13,-19.91,0,*48
1507971786.83,64021,14.63,74554.0,13.47,-18.31,-19.07,0,*49
1507971788.06,64022,14.63,74546.5,13.49,-17.97,-18.69,0,*4E
1507971789.32,64023,14.63,74548.8,13.53,-18.55,-19.57,0,*49
1507971790.52,64024,14.63,74548.0,13.53,-18.49,-19.51,0,*45
1507971791.76,64025,14.63,74556.3,13.53,-19.37,-20.15,0,*46
1507971793.05,64026,14.56,74548.3,13.57,-21.53,-22.31,0,*4C
1507971794.3,64027,14.63,74544.3,13.55,-20.63,-21.53,0,*4A
1507971795.56,64028,14.63,74546.3,13.51,-19.65,-20.63,0,*4F
1507971796.82,64029,14.63,74550.3,13.55,-19.99,-21.03,0,*4E
1507971798.02,64030,14.63,74548.5,13.53,-19.99,-20.93,0,*48
1507971799.25,64031,14.56,74544.5,13.53,-20.19,-21.13,0,*42
1507971800.46,64032,14.56,74544.0,13.53,-19.07,-19.91,0,*45
1507971801.68,64033,14.63,74548.8,13.53,-18.59,-19.51,0,*42
1507971802.89,64034,14.56,74550.5,13.53,-18.83,-19.71,0,*40
1507971804.16,64035,14.56,74546.0,13.55,-21.03,-21.97,0,*46
1507971805.42,64036,14.63,74550.3,13.55,-20.89,-21.83,0,*43
1507971806.65,64037,14.63,74554.8,13.57,-18.73,-19.71,0,*48
1507971807.94,64038,14.56,74554.8,13.55,-18.55,-19.57,0,*45
1507971809.22,64039,14.56,74552.3,13.57,-18.31,-19.23,0,*47
1507971810.45,64040,14.56,74554.5,13.59,-18.73,-19.65,0,*43
1507971811.67,64041,14.63,74552.8,13.59,-19.13,-19.95,0,*4A
1507971812.88,64042,14.56,74556.8,13.59,-18.11,-19.17,0,*40
1507971814.12,64043,14.56,74554.8,13.65,-19.13,-20.05,0,*44
1507971815.41,64044,14.56,74554.3,13.65,-18.31,-19.27,0,*48
1507971816.61,64045,14.56,74552.3,13.63,-18.79,-19.71,0,*40
1507971817.88,64046,14.56,74554.5,13.65,-19.71,-20.83,0,*4B
1507971819.11,64047,14.56,74552.5,13.67,-18.41,-19.23,0,*4A
1507971820.34,64048,14.56,74550.8,13.69,-18.07,-19.03,0,*4B
1507971821.61,64049,14.56,74548.3,13.69,-17.93,-18.89,0,*4B
1507971822.84,64050,14.56,74548.8,13.71,-18.35,-19.37,0,*4D
1507971824.08,64051,14.56,74544.3,13.71,-17.97,-19.13,0,*4D
1507971825.31,64052,14.56,74550.0,13.75,-18.31,-19.37,0,*4F
1507971826.57,64053,14.56,74544.5,13.73,-17.93,-18.99,0,*4A
1507971827.82,64054,14.56,74544.0,13.75,-17.59,-18.59,0,*41
1507971829.07,64055,14.56,74546.3,13.77,-18.25,-19.27,0,*4E
1507971830.32,64056,14.56,74554.5,13.77,-17.73,-18.89,0,*44
1507971831.54,64057,14.56,74550.0,13.79,-19.17,-20.29,0,*46
1507971832.8,64058,14.56,74538.8,13.79,-21.67,-22.77,0,*4C
1507971834.02,64059,14.56,74534.5,13.77,-20.73,-21.73,0,*40
1507971835.27,64060,14.56,74552.0,13.77,-20.35,-21.43,0,*4B
1507971836.5,64061,14.56,74552.0,13.77,-19.95,-21.09,0,*44
1507971837.71,64062,14.56,74544.5,13.75,-19.95,-21.09,0,*45
1507971838.94,64063,14.56,74544.5,13.75,-20.73,-21.87,0,*40
1507971840.23,64064,14.56,74540.0,13.73,-18.93,-20.15,0,*4E
1507971841.45,64065,14.56,74546.3,13.75,-19.85,-21.09,0,*43
1507971842.68,64066,14.56,74544.0,13.75,-19.71,-20.89,0,*42
1507971843.91,64067,14.56,74542.5,13.73,-19.91,-21.13,0,*49
1507971845.11,64068,14.56,74546.3,13.75,-20.25,-21.43,0,*40
1507971846.32,64069,14.56,74546.3,13.75,-21.39,-22.53,0,*4F
1507971847.59,64070,14.56,74542.5,13.73,-19.71,-20.83,0,*49
1507971848.87,64071,14.56,74542.8,13.73,-21.33,-22.73,0,*48
1507971850.12,64072,14.56,74542.8,13.73,-20.15,-21.13,0,*4B
1507971851.37,64073,14.56,74544.0,13.71,-19.81,-21.03,0,*4E
1507971852.61,64074,14.56,74544.8,13.73,-18.69,-19.71,0,*42
1507971853.89,64075,14.56,74544.0,13.73,-18.55,-19.61,0,*4D
1507971855.18,64076,14.56,74544.8,13.77,-19.41,-20.49,0,*4E
1507971856.41,64077,14.56,74546.0,13.75,-18.73,-19.81,0,*43
1507971857.67,64078,14.56,74544.8,13.75,-19.41,-20.79,0,*41
1507971858.88,64079,14.56,74548.3,13.75,-21.43,-22.83,0,*4E
1507971860.11,64080,14.56,74544.0,13.73,-19.99,-21.09,0,*43
1507971861.36,64081,14.56,74546.8,13.75,-19.27,-20.59,0,*45
1507971862.62,64082,14.56,74542.0,13.75,-20.15,-21.27,0,*45
1507971863.84,64083,14.56,74544.3,13.75,-20.35,-21.73,0,*47
1507971865.06,64084,14.56,74538.3,13.75,-19.71,-20.93,0,*45
1507971866.31,64085,14.56,74538.5,13.75,-19.27,-20.59,0,*41
1507971867.54,64086,14.56,74536.5,13.75,-19.71,-20.83,0,*46
1507971868.76,64087,14.56,74532.3,13.75,-19.03,-20.25,0,*4E
1507971870.0,64088,14.56,74532.5,13.77,-19.81,-21.09,0,*46
1507971871.24,64089,14.56,74534.5,13.75,-19.41,-20.59,0,*4D
1507971872.5,64090,14.56,74534.3,13.77,-19.17,-20.35,0,*4E
1507971873.76,64091,14.56,74538.8,13.77,-18.89,-20.09,0,*46
1507971874.96,64092,14.56,74542.3,13.79,-20.39,-21.09,0,*4A
1507971876.19,64093,14.56,74540.0,13.79,-21.39,-22.73,0,*44
1507971877.4,64094,14.56,74536.5,13.75,-20.89,-22.11,0,*41
1507971878.63,64095,14.56,74536.0,13.77,-20.25,-21.43,0,*40
1507971879.86,64096,14.56,74540.5,13.75,-20.79,-22.11,0,*4C
1507971881.09,64097,14.56,74540.8,13.75,-19.85,-20.93,0,*4C
1507971882.31,64098,14.56,74548.3,13.75,-18.79,-19.95,0,*4D
1507971883.57,64099,14.56,74546.3,13.75,-18.35,-19.41,0,*4D
1507971884.84,64100,14.56,74544.8,13.77,-20.15,-21.53,0,*4F
1507971886.08,64101,14.56,74550.0,13.77,-19.71,-21.09,0,*49
1507971887.36,64102,14.56,74542.0,13.77,-19.65,-20.79,0,*49
1507971888.61,64103,14.56,74544.3,13.77,-19.03,-20.15,0,*42
1507971889.82,64104,14.56,74544.3,13.79,-18.83,-19.95,0,*40
1507971891.04,64105,14.56,74550.5,13.79,-19.17,-20.43,0,*4C
1507971892.29,64106,14.56,74550.0,13.79,-20.19,-21.33,0,*4D
1507971893.52,64107,14.56,74544.5,13.79,-19.61,-20.69,0,*47
1507971894.72,64108,14.56,74544.0,13.79,-20.05,-21.47,0,*4D
1507971895.93,64109,14.56,74544.5,13.79,-20.39,-21.63,0,*45
1507971897.16,64110,14.5,74544.5,13.79,-19.65,-21.13,0,*49
1507971898.45,64111,14.5,74550.8,13.81,-19.31,-20.53,0,*4B
1507971899.68,64112,14.56,74544.5,13.81,-20.05,-21.39,0,*48
1507971900.9,64113,14.56,74540.8,13.81,-21.39,-22.87,0,*41
1507971902.17,64114,14.5,74540.5,13.77,-21.53,-22.93,0,*46
1507971903.42,64115,14.5,74538.8,13.77,-22.11,-23.33,0,*49
1507971904.7,64116,14.56,74540.8,13.77,-19.81,-21.23,0,*48
1507971905.96,64117,14.5,74542.0,13.77,-20.43,-21.97,0,*42
1507971907.2,64118,14.56,74546.0,13.77,-20.63,-22.03,0,*41
1507971908.43,64119,14.5,74546.8,13.77,-19.03,-20.25,0,*4A
1507971909.68,64120,14.56,74550.8,13.77,-20.09,-21.53,0,*40
1507971910.91,64121,14.5,74546.3,13.73,-24.93,-26.45,0,*42
1507971912.17,64122,14.5,74540.8,13.73,-23.65,-25.39,0,*47
1507971913.44,64123,14.5,74538.8,13.69,-26.17,-28.15,0,*4E
1507971914.7,64124,14.56,74544.5,13.57,-31.73,-33.83,0,*45
1507971915.98,64125,14.56,74544.5,13.47,-31.39,-33.27,0,*45
1507971917.22,64126,14.5,74540.0,13.37,-27.99,-29.73,0,*46
1507971918.44,64127,14.5,74540.3,13.33,-24.31,-26.03,0,*4A
1507971919.68,64128,14.5,74542.0,13.29,-23.53,-25.13,0,*4F
1507971920.88,64129,14.5,74542.5,13.29,-25.61,-27.13,0,*4B
1507971922.11,64130,14.5,74540.3,13.25,-26.17,-27.89,0,*4E
1507971923.34,64131,14.5,74540.0,13.21,-24.77,-26.61,0,*48
1507971924.62,64132,14.56,74546.3,13.21,-23.69,-25.29,0,*4C
1507971925.84,64133,14.5,74540.0,13.17,-22.87,-24.35,0,*45
1507971927.12,64134,14.5,74540.0,13.17,-20.83,-22.17,0,*42
1507971928.33,64135,14.5,74534.8,13.19,-21.47,-22.97,0,*4C
1507971929.54,64136,14.5,74540.5,13.19,-20.35,-21.63,0,*43
1507971930.8,64137,14.5,74542.5,13.19,-19.57,-20.83,0,*43
1507971932.03,64138,14.5,74542.0,13.21,-19.75,-21.13,0,*4F
1507971933.28,64139,14.5,74538.0,13.23,-19.81,-21.23,0,*44
1507971934.48,64140,14.5,74538.8,13.25,-20.05,-21.43,0,*4C
1507971935.73,64141,14.5,74536.3,13.27,-19.51,-20.99,0,*42
1507971936.95,64142,14.5,74540.8,13.27,-20.09,-21.47,0,*44
1507971938.2,64143,14.5,74542.8,13.27,-20.73,-22.31,0,*4A
1507971939.4,64144,14.5,74542.8,13.25,-22.07,-23.59,0,*41
1507971940.63,64145,14.5,74544.5,13.25,-22.53,-24.25,0,*4D
1507971941.83,64146,14.5,74546.5,13.25,-22.07,-23.79,0,*41
1507971943.05,64147,14.5,74546.3,13.25,-22.31,-23.89,0,*4A
1507971944.28,64148,14.5,74544.5,13.25,-22.03,-23.49,0,*48
1507971945.51,64149,14.5,74546.5,13.21,-23.39,-25.09,0,*47
1507971946.75,64150,14.5,74544.0,13.19,-24.47,-26.13,0,*42
1507971947.98,64151,14.5,74538.0,13.17,-23.09,-24.57,0,*42
1507971949.17,64152,14.5,74534.0,13.19,-22.27,-23.89,0,*46
1507971950.43,64153,14.5,74538.5,13.17,-21.67,-23.09,0,*46
1507971951.65,64154,14.5,74540.0,13.17,-21.63,-22.87,0,*42
1507971952.88,64155,14.5,74542.5,13.17,-22.27,-23.75,0,*4C
1507971954.11,64156,14.5,74544.0,13.13,-20.63,-22.11,0,*4A
1507971955.36,64157,14.5,74548.5,13.17,-20.05,-21.33,0,*4C
1507971956.58,64158,14.5,74542.8,13.19,-19.47,-20.79,0,*4E
1507971957.8,64159,14.5,74548.0,13.19,-20.79,-22.83,0,*4F
1507971959.07,64160,14.5,74550.0,13.17,-22.73,-24.15,0,*4A
1507971960.29,64161,14.5,74548.5,13.19,-20.29,-21.53,0,*4F
1507971961.54,64162,14.5,74554.5,13.19,-19.57,-20.83,0,*43
1507971962.76,64163,14.5,74558.8,13.21,-20.09,-21.73,0,*46
1507971963.99,64164,14.5,74550.8,13.21,-22.27,-23.79,0,*47
1507971965.27,64165,14.5,74554.0,13.21,-20.79,-21.87,0,*4C
1507971966.52,64166,14.5,74556.5,13.23,-19.27,-20.63,0,*47
1507971967.8,64167,14.5,74552.8,13.21,-23.03,-24.83,0,*41
1507971969.05,64168,14.5,74552.3,13.21,-23.85,-25.19,0,*42
1507971970.29,64169,14.5,74550.0,13.17,-21.77,-23.43,0,*40
1507971971.54,64170,14.5,74550.5,13.17,-23.39,-24.71,0,*46
1507971972.76,64171,14.5,74552.3,13.17,-25.87,-27.89,0,*40
1507971973.97,64172,14.5,74548.0,13.07,-24.97,-27.13,0,*41
1507971975.17,64173,14.5,74548.5,13.03,-25.87,-27.77,0,*46
1507971976.46,64174,14.5,74548.5,13.01,-25.81,-27.99,0,*45
1507971977.71,64175,14.5,74546.3,12.97,-22.73,-24.35,0,*45
1507971978.93,64176,14.5,74536.0,12.95,-23.39,-25.29,0,*47
1507971980.14,64177,14.5,74534.3,12.95,-22.57,-24.05,0,*40
1507971981.4,64178,14.5,74532.8,12.95,-22.21,-23.85,0,*41
1507971982.61,64179,14.5,74534.8,12.95,-20.59,-22.11,0,*41
1507971983.87,64180,14.5,74534.5,12.97,-20.53,-22.07,0,*48
1507971985.15,64181,14.5,74534.0,12.97,-19.81,-21.27,0,*4D
1507971986.34,64182,14.5,74542.0,12.99,-20.29,-21.73,0,*49
1507971987.63,64183,14.5,74542.3,13.01,-21.87,-23.53,0,*4D
1507971988.91,64184,14.5,74546.0,13.01,-22.73,-24.25,0,*44
1507971990.12,64185,14.5,74538.0,12.99,-21.63,-23.13,0,*45
1507971991.34,64186,14.5,74534.0,12.99,-22.07,-23.69,0,*4A
1507971992.6,64187,14.5,74534.3,12.97,-22.11,-23.85,0,*40
1507971993.83,64188,14.5,74534.5,12.97,-21.43,-23.09,0,*4F
1507971995.07,64189,14.44,74544.0,12.97,-21.17,-22.63,0,*42
1507971996.31,64190,14.5,74546.3,12.99,-20.83,-22.37,0,*49
1507971997.54,64191,14.5,74542.5,12.97,-21.93,-23.59,0,*4F
1507971998.8,64192,14.5,74542.3,13.01,-21.77,-23.19,0,*4C
1507972000.06,64193,14.5,74552.0,13.01,-20.79,-22.07,0,*4C
1507972001.32,64194,14.44,74550.3,13.01,-19.37,-20.79,0,*40
1507972002.56,64195,14.44,74542.3,13.03,-19.71,-21.23,0,*4F
1507972003.77,64196,14.5,74538.8,13.03,-19.95,-21.39,0,*4D
1507972005.05,64197,14.5,74540.5,13.05,-19.27,-20.73,0,*4C
1507972006.31,64198,14.44,74538.3,13.05,-19.61,-21.13,0,*46
1507972007.53,64199,14.5,74544.0,13.07,-19.47,-20.89,0,*43
1507972008.78,64200,14.5,74548.5,13.09,-19.13,-20.63,0,*4B
1507972010.02,64201,14.5,74546.5,13.11,-19.17,-20.49,0,*4F
1507972011.3,64202,14.44,74536.5,13.13,-19.23,-20.79,0,*4A
1507972012.55,64203,14.5,74534.8,13.13,-20.09,-21.53,0,*40
1507972013.8,64204,14.5,74536.0,13.13,-19.85,-21.39,0,*45
1507972015.07,64205,14.5,74538.5,13.13,-20.15,-21.57,0,*4F
1507972016.3,64206,14.5,74540.0,13.17,-19.75,-21.17,0,*40
1507972017.56,64207,14.44,74544.8,13.17,-20.43,-21.97,0,*46
1507972018.76,64208,14.5,74544.3,13.19,-19.99,-21.47,0,*47
1507972020.03,64209,14.44,74540.8,13.21,-19.13,-20.49,0,*40
1507972021.32,64210,14.44,74538.8,13.21,-18.93,-20.19,0,*44
1507972022.54,64211,14.44,74538.5,13.23,-19.85,-21.39,0,*42
1507972023.8,64212,14.44,74536.8,13.21,-19.57,-21.09,0,*4F
1507972025.04,64213,14.44,74536.5,13.25,-19.23,-20.59,0,*4D
1507972026.28,64214,14.44,74542.3,13.27,-19.17,-20.59,0,*4F
1507972027.53,64215,14.44,74548.8,13.27,-19.47,-20.99,0,*47
1507972028.78,64216,14.5,74542.0,13.27,-21.33,-22.97,0,*40
1507972030.03,64217,14.44,74534.5,13.25,-21.97,-23.65,0,*41
1507972031.27,64218,14.44,74540.8,13.25,-20.93,-22.47,0,*4A
1507972032.53,64219,14.44,74546.3,13.25,-20.49,-21.87,0,*43
1507972033.78,64220,14.44,74544.0,13.25,-20.19,-21.83,0,*48
1507972035.03,64221,14.44,74540.8,13.25,-22.21,-23.95,0,*45
1507972036.27,64222,14.44,74550.0,13.25,-20.19,-21.57,0,*43
1507972037.5,64223,14.44,74544.8,13.25,-20.73,-22.21,0,*4C
1507972038.75,64224,14.44,74540.8,13.27,-19.61,-21.09,0,*49
1507972040.01,64225,14.44,74546.8,13.27,-19.31,-20.73,0,*41
1507972041.25,64226,14.44,74548.3,13.27,-20.15,-21.77,0,*4B
1507972042.49,64227,14.44,74546.0,13.25,-19.95,-21.27,0,*4F
1507972043.7,64228,14.44,74546.5,13.25,-19.71,-21.13,0,*4D
1507972044.94,64229,14.44,74548.5,13.27,-20.29,-21.83,0,*40
1507972046.17,64230,14.44,74550.0,13.27,-20.43,-22.11,0,*4C
1507972047.39,64231,14.44,74548.0,13.27,-20.73,-22.27,0,*4B
1507972048.65,64232,14.44,74548.0,13.27,-23.23,-25.09,0,*45
1507972049.86,64233,14.44,74544.3,13.25,-22.97,-24.77,0,*40
1507972051.11,64234,14.44,74544.0,13.21,-22.27,-23.95,0,*43
1507972052.33,64235,14.44,74546.0,13.21,-21.77,-23.39,0,*42
1507972053.57,64236,14.44,74542.0,13.21,-21.47,-23.09,0,*41
1507972054.84,64237,14.44,74544.3,13.17,-20.53,-21.97,0,*44
1507972056.05,64238,14.44,74538.5,13.19,-20.39,-21.93,0,*4D
1507972057.28,64239,14.44,74542.8,13.19,-19.57,-21.09,0,*4D
1507972058.56,64240,14.44,74546.3,13.21,-19.61,-20.99,0,*45
1507972059.83,64241,14.44,74548.0,13.21,-19.17,-20.53,0,*43
1507972061.08,64242,14.44,74548.5,13.23,-20.19,-21.87,0,*4E
1507972062.33,64243,14.44,74548.3,13.23,-20.79,-22.21,0,*46
1507972063.56,64244,14.44,74552.3,13.23,-21.27,-22.83,0,*43
1507972064.79,64245,14.44,74554.3,13.21,-21.13,-22.57,0,*4E
1507972066.0,64246,14.44,74548.8,13.23,-19.71,-21.13,0,*43
1507972067.23,64247,14.44,74542.5,13.23,-19.65,-21.13,0,*47
1507972068.46,64248,14.44,74546.0,13.23,-19.99,-21.53,0,*4F
1507972069.69,64249,14.44,74542.5,13.23,-19.51,-21.03,0,*4F
1507972070.92,64250,14.44,74546.5,13.25,-19.75,-21.33,0,*44
1507972072.17,64251,14.44,74546.8,13.27,-20.09,-21.67,0,*47
1507972073.42,64252,14.44,74542.5,13.27,-20.53,-22.03,0,*4A
1507972074.69,64253,14.44,74540.5,13.27,-20.15,-21.67,0,*48
1507972075.94,64254,14.44,74542.3,13.27,-21.53,-23.13,0,*4D
1507972077.17,64255,14.44,74548.8,13.25,-20.63,-21.97,0,*42
1507972078.41,64256,14.44,74550.3,13.25,-21.13,-22.77,0,*4A
1507972079.61,64257,14.44,74550.3,13.25,-23.13,-24.93,0,*45
1507972080.84,64258,14.44,74550.5,13.23,-22.53,-24.15,0,*47
1507972082.08,64259,14.44,74556.0,13.21,-22.03,-23.69,0,*4D
1507972083.28,64260,14.44,74552.8,13.19,-21.43,-22.97,0,*4B
1507972084.51,64261,14.44,74550.8,13.19,-21.77,-23.65,0,*41
1507972085.73,64262,14.44,74548.8,13.17,-21.13,-22.63,0,*49
1507972087.01,64263,14.44,74544.8,13.17,-22.31,-23.53,0,*49
1507972088.25,64264,14.44,74536.0,13.13,-20.59,-22.11,0,*41
1507972089.5,64265,14.44,74544.3,13.17,-20.73,-22.17,0,*4A
1507972090.72,64266,14.44,74558.0,13.17,-20.25,-21.63,0,*4A
1507972091.98,64267,14.44,74548.3,13.17,-21.53,-23.09,0,*45
1507972093.21,64268,14.44,74552.8,13.17,-21.93,-23.39,0,*45
1507972094.47,64269,14.44,74546.8,13.13,-21.53,-22.97,0,*49
1507972095.73,64270,14.44,74544.8,13.13,-22.63,-24.25,0,*4E
1507972096.98,64271,14.44,74554.3,13.11,-21.87,-23.49,0,*49
1507972098.18,64272,14.44,74554.3,13.11,-21.09,-22.37,0,*44